Location: San Pelegr�n
(42.1868°N, 0.0079°E)
Time: 06:35:59
(UTC+00:00)

USA 32 - Pass Details

Date: 24 January 2020
Orbit: 777 x 783 km, 85.0° (Epoch: 29 January)

Event Time Altitude Azimuth Distance (km) Brightness Sun altitude
Rises 17:50:01 0° 180° (S) 3,244 7.5 -8.9°
Reaches altitude 10° 17:52:21 10° 180° (S) 2,320 6.7 -9.3°
Maximum altitude 17:57:34 82° 93° (E) 791 4.0 -10.2°
Drops below altitude 10° 18:02:48 10° 7° (N) 2,337 6.3 -11.1°
Sets 18:05:10 0° 6° (N) 3,269 7.0 -11.5°
